Back to catalog

COSMOS 2483

AliveNavigationPO
NORAD 39058·PAYLOAD·🇷🇺 Russia

Launched Jan 15, 2013 from Plesetsk Cosmodrome

Loading…

Next Passes (next 24 hours)

TLE

FreshSource: Space-Track

Epoch: Sep 14, 2026, 15:03 UTC

1 39058U 13001B   26257.62741806  .00000195  00000-0  13177-2 0  9992
2 39058  82.5040 159.1891 0016009 173.2531 186.8767 12.44027193612711

Track COSMOS 2483 in real time with AllMySat

Download on the App Store